Regional Weather Roundup
Issued by NWS

Home | Current Version | Previous Version | Graphics & Text | Print | Product List | Glossary On
Versions: 1 2 3 4 5 6 7 8 9 10 11 12 13 14 15 16 17 18 19 20 21 22 23 24 25 26 27 28 29 30 31 32 33 34 35 36 37 38 39 40 41 42 43 44 45 46 47 48 49 50
000
ASUS43 KMKX 231500
RWRWI

WISCONSIN REGIONAL WEATHER ROUNDUP
NATIONAL WEATHER SERVICE MILWAUKEE/SULLIVAN WI
1000 AM CDT THU OCT 23 2014

NOTE: "FAIR" INDICATES FEW OR NO CLOUDS BELOW 12,000 FEET WITH NO
SIGNIFICANT WEATHER AND/OR OBSTRUCTIONS TO VISIBILITY.

WIZ001-002-006>008-014>016-023>028-231600-
NORTHWEST WISCONSIN

CITY           SKY/WX    TMP DP  RH WIND       PRES   REMARKS
SUPERIOR ARPT  CLOUDY    49  48  96 SW3       29.98S
ASHLAND        CLOUDY    48  47  96 S6        30.01S
HAYWARD        CLOUDY    48  46  93 S7        30.01S
SIREN          FOG       49  49  98 S5        30.00S VSB 1
CUMBERLAND     FOG       46  45  93 S6        30.01S VSB 3/4
RICE LAKE      FOG       47  46  93 SE3       30.03S VSB 1
CHETEK         DRIZZLE   47  46  98 SE5       30.02S
LADYSMITH      DRIZZLE   46  44  94 SE6       30.05S
EAU CLAIRE     NOT AVBL
MENOMONIE      NOT AVBL
NEW RICHMOND   CLOUDY    50  50 100 S3        30.01S FOG
OSCEOLA        CLOUDY    51  51 100 S3        30.03S FOG
$$

WIZ003>005-009-010-017-018-231600-
NORTH CENTRAL WISCONSIN

CITY           SKY/WX    TMP DP  RH WIND       PRES   REMARKS
MANITOWISH WTR CLOUDY    42  42  97 S6        30.03S
ARBOR VITAE    CLOUDY    44  41  88 S7        30.05R
WOODRUFF       CLOUDY    44  41  88 S7        30.05R
RHINELANDER    LGT RAIN  44  40  85 S7        30.06S
EAGLE RIVER    CLOUDY    43  41  95 S5        30.05S
LAND O LAKES   CLOUDY    44  40  86 S6        30.06R
PHILLIPS       RAIN      43  41  93 S8        30.03S
TOMAHAWK       DRIZZLE   42  40  93 CALM      30.06S
MEDFORD        LGT RAIN  42  40  95 S6        30.05S
MERRILL        CLOUDY    43  41  95 S5        30.07S FOG
$$

WIZ029-030-035-036-043>047-231600-
CENTRAL WISCONSIN

CITY           SKY/WX    TMP DP  RH WIND       PRES   REMARKS
WAUSAU         LGT RAIN  43  40  89 SE7       30.07S
MOSINEE        NOT AVBL
MARSHFIELD     LGT RAIN  44  41  89 S6        30.07R
STEVENS POINT  CLOUDY    42  38  87 SE6       30.10S
WAUPACA        CLOUDY    42  40  94 SE5       30.13S FOG
WAUTOMA        CLOUDY    43  39  87 SE6       30.12S FOG
WISC RAPIDS    LGT RAIN  45  41  86 S3        30.10S
CAMP DOUGLAS   LGT RAIN  46  46 100 SE5       30.08S FOG
$$

WIZ011>013-019>022-031-037>040-048>050-231600-
NORTHEAST WISCONSIN

CITY           SKY/WX    TMP DP  RH WIND       PRES   REMARKS
ANTIGO         DRIZZLE   38  38  97 S9        30.08F WCI  32
SHAWANO        CLOUDY    42  39  88 CALM      30.13F
OCONTO         PTSUNNY   47  40  78 S7        30.14F
STURGEON BAY   MOSUNNY   48  43  81 S12       30.16F
GREEN BAY      CLOUDY    47  39  74 S9        30.15F
MANITOWOC      NOT AVBL
APPLETON       PTSUNNY   45  36  70 S9        30.14F
CLINTONVILLE   CLOUDY    41  37  87 S6        30.12F
OSHKOSH        CLOUDY    48  40  73 S15       30.14S
$$

WIZ032>034-041-042-053>061-231600-
SOUTHWEST WISCONSIN

CITY           SKY/WX    TMP DP  RH WIND       PRES   REMARKS
LA CROSSE      LGT RAIN  49  46  90 S10       30.06S FOG
SPARTA         DRIZZLE   47  42  85 SE3       30.08S
VIROQUA        CLOUDY    44  44  99 S8        30.08R
BOSCOBEL       LGT RAIN  47  43  86 CALM      30.11S FOG
PRAIRIE DU CHI LGT RAIN  46  44  91 E5        30.09F
PLATTEVILLE    CLOUDY    47  40  75 S13       30.12R
$$

WIZ056-057-062-063-064-067-068-231600-
SOUTH CENTRAL WISCONSIN

CITY           SKY/WX    TMP DP  RH WIND       PRES   REMARKS
REEDSBURG      DRIZZLE   46  38  75 S7        30.11R
BARABOO/DELLS  CLOUDY    46  36  66 S10       30.10S
LONE ROCK      NOT AVBL
MINERAL POINT  CLOUDY    46  37  71 SE13      30.10F
MADISON        CLOUDY    48  39  71 S9        30.15S
MIDDLETON      CLOUDY    48  37  64 S12G20    30.14R
WATERTOWN      MOSUNNY   44  39  85 S6        30.16S
MONROE         CLOUDY    46  39  76 S13       30.13F
JANESVILLE     SUNNY     50  39  66 S10       30.16F
$$

WIZ051-052-058>065-066-070>072-231600-
SOUTHEAST WISCONSIN

CITY           SKY/WX    TMP DP  RH WIND       PRES   REMARKS
MILWAUKEE      PTSUNNY   50  40  68 S13       30.19F
WAUKESHA       SUNNY     43  37  81 SW7       30.19S
MILWAUKEE/TIMM SUNNY     46  37  71 S9        30.19F
RACINE         MOSUNNY   49  40  71 S7        30.21F
BURLINGTON     MOSUNNY   42  42 100 SW3       30.18F
KENOSHA        MOSUNNY   50  43  77 S6        30.20F
FOND DU LAC    CLOUDY    47  39  74 S10       30.15S
SHEBOYGAN      PTSUNNY   46  39  76 S7        30.16F
WEST BEND      CLOUDY    43  37  81 S3        30.17S
JUNEAU         PTSUNNY   44  38  80 S9        30.17R
$$

LSZ147-162-231600-
LAKE SUPERIOR

STATION/POSITION TIME  TEMP    WIND        PRES    WAVE
                       AIR SEA DIR/SP/G            HT/PER
                 (UTC) (F)     (DEG/KT/KT) (MB)    (FT/S)
W MID LAKE BUOY  1350   48 46  180/ 12/ 14 1016.1F   2/ 4
DEVILS ISLAND    1400   48     180/  7/  9 1016.1R
PORT WING        1400   49     190/  5/  6 1015.2S
SAXON HARBOR     1440   51     190/  5/ 12 1015.9R
$$

LMZ867-665-643>646-231600-
LAKE MICHIGAN

STATION/POSITION TIME  TEMP    WIND        PRES    WAVE
                       AIR SEA DIR/SP/G            HT/PER
                 (UTC) (F)     (DEG/KT/KT) (MB)    (FT/S)
CHAMBERS ISLAND  1400   50     180/  6/ 12 1021.3S
N MID LAKE BUOY  1350   48 51  200/ 16/ 17 1022.1F   3/ 5
NORTHPORT PIER   1400   50     170/  3/ 11 1021.3F
SISTER BAY       1243          180/  9/ 11   N/A
ALGOMA LAKESHORE 1326          240/ 12/ 13   N/A
KEWAUNEE LAKESHO 1400   47     190/  8/ 11 1020.9F
SHEBOYGAN LAKESH 1400   48 50  180/ 13/ 14 1022.6F
PORT WASHINGTON  1400   51     190/  6/  9 1023.0F
ATWATER BUOY     1400   46     160/ 12/ 14 1023.3
MILWAUKEE LAKESH 1400   45     210/  8/ 10   N/A
S MID LAKE BUOY  1350   51 54  200/ 12/ 14 1023.6R   2/ 4
KENOSHA   LAKESH 1400   46     200/  6/  9 1022.7F
$$

TC  - TEMPERATURE IN CELSIUS
VSB - VISIBILITY IN STATUTE MILES
WCI - WIND CHILL INDEX
HX  - HEAT INDEX




USA.gov is the U.S. government's official web portal to all federal, state and local government web resources and services.